Location: Bazugues
(43.4465°N, 0.3432°E)
Time: 05:49:52
(UTC+00:00)

SJ-7 - Pass Details

Date: 12 January 2026
Orbit: 495 x 520 km, 97.7° (Epoch: 10 February)

Event Time Altitude Azimuth Distance (km) Brightness Sun altitude
Rises 18:18:10 0° 159° (SSE) 2,640 7.7 -16.6°
Reaches altitude 10° 18:20:16 10° 156° (SSE) 1,756 6.8 -16.9°
Maximum altitude 18:24:01 65° 75° (ENE) 580 4.1 -17.6°
Drops below altitude 10° 18:27:48 10° 353° (N) 1,767 6.8 -18.3°
Sets 18:29:54 0° 351° (N) 2,657 7.8 -18.7°
